Eilat, Israel

11:18 PM IDT on September 29, 2016 (GMT +0300)
Eilat

Weather History for LLET - April, 2013

Change the Weather History Date:

Thursday, April 25, 2013

  Actual Average Record
Temperature  
Mean Temperature 82 °F -  
Max Temperature 96 °F 86 °F 102 °F (2008)
Min Temperature 69 °F 66 °F 59 °F (2015)
Cooling Degree Days 18    
Growing Degree Days 32 (Base 50)    
Moisture  
Dew Point 36 °F    
Average Humidity 19    
Maximum Humidity 41    
Minimum Humidity 4    
Precipitation  
Precipitation 0.00 in - - ()
Sea Level Pressure  
Sea Level Pressure 29.91 in    
Wind  
Wind Speed 14 mph ()    
Max Wind Speed 24 mph    
Max Gust Speed -    
Averages and records for this station are not official NWS values.
T = Trace of Precipitation, MM = Missing Value Source: Averaged Metar Reports

Daily Weather History Graph

Daily Weather History Graph

Search for Another Location

Airport or City:

Trip Planner

Search our weather history database for the weather conditions in past years. The results will help you decide how hot, cold, wet, or windy it might be!

Date:

Astronomy

Apr. 25, 2013 Rise Set
Actual Time 6:03 AM IDT 7:13 PM IDT
Civil Twilight 5:38 AM IDT 7:38 PM IDT
Nautical Twilight 5:09 AM IDT 8:07 PM IDT
Astronomical Twilight 4:38 AM IDT 8:38 PM IDT
Moon 7:01 PM IDT (4/25) 5:30 AM IDT (4/25)
Length of Visible Light 13h 59m
Length of Day
13h 09m
Full, 100% of the Moon is Illuminated
Apr 25
Full
Apr 25
Full
May 2
Last Quarter
May 10
New
May 18
First Quarter

Hourly Weather History & Observations

Time (IDT) Temp. Dew Point Humidity Pressure Visibility Wind Dir Wind Speed Gust Speed Precip Events Conditions
3:00 AM 72 °F 42 °F 23% 29.97 in - NE 4.6 mph - -  
5:50 AM 71.6 °F 44.6 °F 38% 29.98 in - NE 16.1 mph - N/A   Clear
6:50 AM 71.6 °F 46.4 °F 41% 29.98 in - NE 12.7 mph - N/A   Clear
7:50 AM 73.4 °F 46.4 °F 38% 29.98 in - NE 15.0 mph - N/A   Clear
8:50 AM 77.0 °F 46.4 °F 34% 30.01 in - NNE 23.0 mph - N/A   Clear
9:00 AM 77 °F 46 °F 22% 29.99 in - NNE 9.2 mph - -  
9:50 AM 80.6 °F 46.4 °F 30% 30.01 in - NNE 23.0 mph - N/A   Clear
10:50 AM 82.4 °F 44.6 °F 26% 29.98 in - NNE 19.6 mph - N/A   Clear
11:50 AM 86.0 °F 44.6 °F 23% 29.98 in - NNE 17.3 mph - N/A   Clear
12:50 PM 87.8 °F 41.0 °F 19% 29.92 in - NNE 21.9 mph - N/A   Clear
1:50 PM 93.2 °F 37.4 °F 14% 29.89 in - NNE 20.7 mph - N/A   Clear
2:50 PM 95.0 °F 33.8 °F 12% 29.86 in - NNE 20.7 mph - N/A   Clear
3:00 PM 95 °F 28 °F 4% 29.85 in - NNE 10.4 mph - -  
3:50 PM 95.0 °F 30.2 °F 10% 29.83 in - NNE 21.9 mph - N/A   Clear
4:50 PM 96.8 °F 30.2 °F 10% 29.83 in - NNE 21.9 mph - N/A   Clear
5:50 PM 95.0 °F 28.4 °F 9% 29.83 in - NNE 24.2 mph - N/A   Clear
6:50 PM 91.4 °F 30.2 °F 11% 29.83 in - North 21.9 mph - N/A   Clear
7:50 PM 89.6 °F 28.4 °F 11% 29.83 in - North 20.7 mph - N/A   Clear
8:50 PM 89.6 °F 24.8 °F 10% 29.86 in - North 17.3 mph - N/A   Clear
9:00 PM 88 °F 19 °F 4% 29.85 in - North 5.8 mph - -  
9:50 PM 84.2 °F 24.8 °F 11% 29.86 in - NNE 17.3 mph - N/A   Clear
10:50 PM 84.2 °F 32.0 °F 15% 29.89 in - North 16.1 mph - N/A   Clear